Project,Study,Ord_Occ,Event_Num,Cast_ID,Date_Time_UTC,Date_Time_PST,Lat_Dec,Lon_Dec,Sta_ID,Line,Sta,Depth,Pressure,PrQ,Temp1,Temp1Q,Temp2,Temp2Q,TempAve,Salt1,Salt1Q,Salt1_Corr,Salt2,Salt2Q,Salt2_Corr,SaltAve_Corr,Ox1,Ox1Q,Ox1_CruiseCorr,Ox1_StaCorr,Ox2,Ox2Q,Ox2_CruiseCorr,Ox2_StaCorr,OxAve_StaCorr,Ox1uM,Ox1uM_CruiseCorr,Ox1uM_StaCorr,Ox2uM,Ox2uM_CruiseCorr,Ox2uM_StaCorr,OxAveuM_StaCorr,FluorV,FluorQ,EstChl_CruiseCorr,EstChl_StaCorr,ISUSV,ISUSQ,EstNO3_CruiseCorr,EstNO3_StaCorr,SigThetaTS1,SigThetaTS1Q,SigThetaTS2,SigThetaTS2Q,BAT,XMiss,TransQ,pH,pHQ,SPAR,SPARQ,PAR,PARQ,PoT1,PoT2,DynHt,SVA,OxSat1,OxSat2,BTL_Depth,BTL_Temp,SaltB,OxB,OxBuM,Chl-a,Phaeo,NO3,NO2,NH4,PO4,SIL
CalCOFI,2007SR,063,65,2007_063d,25-Jul-2020 17:18:19,25-Jul-2020 09:18:19,34.05440,-122.94184,076.7 080.0,076.7,080.0,2.000,2.014,,16.3225,,16.3226,,16.3226,33.5806,,33.5808,33.5809,,33.5825,33.5817,5.6411,,5.8767,5.8437,4.5251,,6.8616,4.7790,5.3114,245.886,256.1923,253.4047,197.241,435.8572,203.2023,228.3035,0.0719,,0.4206,0.2897,-99.0,,-99.0,-99.0,24.5825,,24.5828,,0.7697,82.4960,,8.136,,9.3645E+02,,3.3356E+01,,16.3222,16.3223,0.0063,,100.831,80.883,2,16.367,33.5840,5.863,255.96,0.423,0.103,2.39,0.058,0.48,0.38,1.76
CalCOFI,2007SR,063,65,2007_063d,25-Jul-2020 17:18:26,25-Jul-2020 09:18:26,34.05440,-122.94184,076.7 080.0,076.7,080.0,3.000,3.022,,16.3194,,16.3195,,16.3195,33.5804,,33.5806,33.5807,,33.5823,33.5815,5.6412,,5.8768,5.8438,4.5229,,6.8563,4.7741,5.3090,245.889,256.1954,253.4078,197.146,435.8646,203.0010,228.2044,0.0684,,0.3795,0.2673,-99.0,,-99.0,-99.0,24.5832,,24.5834,,0.7680,82.5298,,8.138,,9.3705E+02,,2.6966E+01,,16.3189,16.3190,0.0131,,100.825,80.839,,,,,,,,,,,,
CalCOFI,2007SR,063,65,2007_063d,25-Jul-2020 17:18:28,25-Jul-2020 09:18:28,34.05440,-122.94184,076.7 080.0,076.7,080.0,4.000,4.029,,16.3184,,16.3183,,16.3184,33.5805,,33.5807,33.5809,,33.5825,33.5816,5.6487,,5.8846,5.8516,4.5241,,6.8592,4.7768,5.3142,246.218,256.5389,253.7482,197.198,436.6693,203.1111,228.4297,0.0775,,0.4865,0.3253,-99.0,,-99.0,-99.0,24.5835,,24.5838,,0.7795,82.2949,,8.138,,9.4330E+02,,2.3438E+01,,16.3177,16.3176,0.0167,,100.958,80.858,,,,,,,,,,,,
CalCOFI,2007SR,063,65,2007_063d,25-Jul-2020 17:18:31,25-Jul-2020 09:18:31,34.05440,-122.94184,076.7 080.0,076.7,080.0,5.000,5.036,,16.3177,,16.3169,,16.3173,33.5805,,33.5807,33.5810,,33.5826,33.5817,5.6439,,5.8796,5.8466,4.5308,,6.8752,4.7916,5.3191,246.007,256.3186,253.5299,197.490,436.1532,203.7298,228.6299,0.0798,,0.5136,0.3398,-99.0,,-99.0,-99.0,24.5837,,24.5843,,0.7703,82.4822,,8.138,,9.4473E+02,,2.0572E+01,,16.3169,16.3161,0.0206,,100.871,80.976,,,,,,,,,,,,
CalCOFI,2007SR,063,65,2007_063d,25-Jul-2020 17:18:32,25-Jul-2020 09:18:32,34.05440,-122.94184,076.7 080.0,076.7,080.0,6.000,6.043,,16.3164,,16.3163,,16.3164,33.5804,,33.5806,33.5810,,33.5826,33.5816,5.6447,,5.8804,5.8474,4.5296,,6.8723,4.7890,5.3182,246.044,256.3572,253.5682,197.440,436.2437,203.6239,228.5961,0.0854,,0.5795,0.3747,-99.0,,-99.0,-99.0,24.5840,,24.5844,,0.7700,82.4884,,8.138,,9.4030E+02,,1.8162E+01,,16.3154,16.3154,0.0240,,100.883,80.955,,,,,,,,,,,,
CalCOFI,2007SR,063,65,2007_063d,25-Jul-2020 17:18:36,25-Jul-2020 09:18:36,34.05440,-122.94184,076.7 080.0,076.7,080.0,7.000,7.050,,16.3171,,16.3170,,16.3171,33.5805,,33.5807,33.5811,,33.5827,33.5817,5.6490,,5.8849,5.8519,4.5300,,6.8733,4.7899,5.3209,246.229,256.5504,253.7596,197.456,436.6962,203.6578,228.7087,0.0833,,0.5547,0.3617,3.0941E-08,,0.0000,-99.0,24.5839,,24.5844,,0.7683,82.5246,,8.138,,9.4715E+02,,1.6176E+01,,16.3160,16.3159,0.0277,,100.960,80.962,,,,,,,,,,,,
CalCOFI,2007SR,063,65,2007_063d,25-Jul-2020 17:18:37,25-Jul-2020 09:18:37,34.05440,-122.94184,076.7 080.0,076.7,080.0,8.000,8.058,,16.3178,,16.3174,,16.3176,33.5807,,33.5809,33.5811,,33.5827,33.5818,5.6510,,5.8870,5.8540,4.5325,,6.8792,4.7954,5.3247,246.320,256.6453,253.8538,197.566,436.9188,203.8908,228.8723,0.0853,,0.5783,0.3741,8.5725E-08,,0.0000,-99.0,24.5839,,24.5843,,0.7673,82.5450,,8.138,,9.4845E+02,,1.5352E+01,,16.3165,16.3162,0.0311,,100.999,81.008,,,,,,,,,,,,
CalCOFI,2007SR,063,65,2007_063d,25-Jul-2020 17:18:38,25-Jul-2020 09:18:38,34.05440,-122.94184,076.7 080.0,076.7,080.0,9.000,9.065,,16.3124,,16.3109,,16.3117,33.5801,,33.5803,33.5805,,33.5821,33.5812,5.6520,,5.8881,5.8550,4.5333,,6.8811,4.7972,5.3261,246.363,256.6902,253.8983,197.601,437.0239,203.9650,228.9317,0.0894,,0.6265,0.3995,3.9399E-09,,0.0000,-99.0,24.5848,,24.5854,,0.7662,82.5672,,8.138,,9.4159E+02,,1.3318E+01,,16.3110,16.3094,0.0345,,101.006,81.012,,,,,,,,,,,,
CalCOFI,2007SR,063,65,2007_063d,25-Jul-2020 17:18:41,25-Jul-2020 09:18:41,34.05440,-122.94184,076.7 080.0,076.7,080.0,10.000,10.072,,16.3139,,16.3136,,16.3138,33.5804,,33.5806,33.5809,,33.5825,33.5816,5.6500,,5.8860,5.8530,4.5352,,6.8857,4.8014,5.3272,246.275,256.5984,253.8072,197.682,436.8087,204.1366,228.9719,0.0921,,0.6583,0.4160,-99.0,,-99.0,-99.0,24.5846,,24.5851,,0.7694,82.5012,,8.138,,9.4633E+02,,1.2487E+01,,16.3123,16.3120,0.0379,,100.973,81.050,,,,,,,,,,,,
CalCOFI,2007SR,063,65,2007_063d,25-Jul-2020 17:18:44,25-Jul-2020 09:18:44,34.05440,-122.94184,076.7 080.0,076.7,080.0,11.000,11.079,,16.3086,,16.3065,,16.3076,33.5797,,33.5799,33.5799,,33.5815,33.5807,5.6450,,5.8808,5.8477,4.5331,,6.8807,4.7967,5.3222,246.056,256.3698,253.5806,197.588,436.2730,203.9374,228.7590,0.1142,,0.9187,0.5480,-99.0,,-99.0,-99.0,24.5854,,24.5860,,0.7697,82.4946,,8.138,,9.5180E+02,,1.1851E+01,,16.3069,16.3047,0.0412,,100.872,80.999,11,16.371,33.5809,5.854,255.56,0.428,0.109,2.33,0.055,0.26,0.37,1.71
CalCOFI,2007SR,063,65,2007_063d,25-Jul-2020 17:18:45,25-Jul-2020 09:18:45,34.05439,-122.94184,076.7 080.0,076.7,080.0,12.000,12.087,,16.3092,,16.3100,,16.3096,33.5803,,33.5805,33.5806,,33.5822,33.5814,5.6407,,5.8763,5.8433,4.5334,,6.8814,4.7974,5.3204,245.869,256.1745,253.3871,197.602,435.8157,203.9671,228.6771,0.0930,,0.6689,0.4215,-99.0,,-99.0,-99.0,24.5857,,24.5858,,0.7665,82.5616,,8.138,,9.4477E+02,,1.0894E+01,,16.3073,16.3081,0.0446,,100.797,81.011,,,,,,,,,,,,
CalCOFI,2007SR,063,65,2007_063d,25-Jul-2020 17:18:47,25-Jul-2020 09:18:47,34.05438,-122.94184,076.7 080.0,076.7,080.0,13.000,13.094,,16.3122,,16.3129,,16.3126,33.5804,,33.5806,33.5807,,33.5823,33.5815,5.6434,,5.8791,5.8461,4.5332,,6.8809,4.7969,5.3215,245.987,256.2977,253.5092,197.593,436.1043,203.9480,228.7286,0.0936,,0.6760,0.4252,-99.0,,-99.0,-99.0,24.5851,,24.5852,,0.7670,82.5511,,8.138,,9.4583E+02,,9.9159E+00,,16.3101,16.3109,0.0480,,100.851,81.012,,,,,,,,,,,,
CalCOFI,2007SR,063,65,2007_063d,25-Jul-2020 17:18:49,25-Jul-2020 09:18:49,34.05440,-122.94184,076.7 080.0,076.7,080.0,14.000,14.101,,16.3156,,16.3150,,16.3153,33.5804,,33.5806,33.5807,,33.5823,33.5815,5.6440,,5.8797,5.8467,4.5336,,6.8819,4.7978,5.3223,246.011,256.3228,253.5340,197.611,436.1630,203.9862,228.7601,0.0968,,0.7137,0.4446,-99.0,,-99.0,-99.0,24.5844,,24.5848,,0.7664,82.5644,,8.138,,9.5616E+02,,9.0989E+00,,16.3133,16.3127,0.0513,,100.868,81.022,,,,,,,,,,,,
CalCOFI,2007SR,063,65,2007_063d,25-Jul-2020 17:18:51,25-Jul-2020 09:18:51,34.05439,-122.94184,076.7 080.0,076.7,080.0,15.000,15.108,,16.3142,,16.3144,,16.3143,33.5804,,33.5806,33.5806,,33.5822,33.5814,5.6411,,5.8767,5.8437,4.5343,,6.8835,4.7994,5.3216,245.888,256.1944,253.4068,197.644,435.8621,204.0561,228.7315,0.0955,,0.6984,0.4367,-99.0,,-99.0,-99.0,24.5848,,24.5849,,0.7669,82.5546,,8.138,,9.5118E+02,,8.4796E+00,,16.3118,16.3121,0.0547,,100.815,81.035,,,,,,,,,,,,
CalCOFI,2007SR,063,65,2007_063d,25-Jul-2020 17:18:54,25-Jul-2020 09:18:54,34.05438,-122.94184,076.7 080.0,076.7,080.0,16.000,16.116,,16.3090,,16.3078,,16.3084,33.5798,,33.5800,33.5800,,33.5816,33.5808,5.6391,,5.8746,5.8416,4.5329,,6.8802,4.7963,5.3190,245.799,256.1015,253.3147,197.581,435.6445,203.9226,228.6187,0.1001,,0.7525,0.4645,-99.0,,-99.0,-99.0,24.5855,,24.5860,,0.7724,82.4406,,8.138,,9.4471E+02,,8.0243E+00,,16.3064,16.3053,0.0581,,100.768,80.999,,,,,,,,,,,,
CalCOFI,2007SR,063,65,2007_063d,25-Jul-2020 17:18:55,25-Jul-2020 09:18:55,34.05438,-122.94184,076.7 080.0,076.7,080.0,17.000,17.123,,16.2988,,16.2978,,16.2983,33.5792,,33.5794,33.5797,,33.5813,33.5804,5.6467,,5.8825,5.8495,4.5317,,6.8773,4.7936,5.3216,246.131,256.4481,253.6582,197.531,436.4565,203.8167,228.7375,0.0973,,0.7196,0.4477,-99.0,,-99.0,-99.0,24.5875,,24.5880,,0.7691,82.5073,,8.138,,9.5172E+02,,7.5397E+00,,16.2961,16.2951,0.0615,,100.884,80.963,,,,,,,,,,,,
CalCOFI,2007SR,063,65,2007_063d,25-Jul-2020 17:18:56,25-Jul-2020 09:18:56,34.05438,-122.94182,076.7 080.0,076.7,080.0,18.000,18.130,,16.2876,,16.2829,,16.2853,33.5776,,33.5778,33.5774,,33.5790,33.5784,5.6460,,5.8818,5.8488,4.5352,,6.8857,4.8014,5.3251,246.098,256.4136,253.6241,197.681,436.3758,204.1345,228.8793,0.1003,,0.7549,0.4657,-99.0,,-99.0,-99.0,24.5888,,24.5897,,0.7665,82.5623,,8.138,,9.5655E+02,,7.0812E+00,,16.2848,16.2801,0.0648,,100.848,80.999,,,,,,,,,,,,
CalCOFI,2007SR,063,65,2007_063d,25-Jul-2020 17:18:58,25-Jul-2020 09:18:58,34.05438,-122.94182,076.7 080.0,076.7,080.0,19.000,19.138,,16.2782,,16.2802,,16.2792,33.5774,,33.5776,33.5782,,33.5798,33.5787,5.6473,,5.8832,5.8501,4.5357,,6.8869,4.8025,5.3263,246.153,256.4710,253.6810,197.701,436.5103,204.1768,228.9289,0.1006,,0.7584,0.4675,-99.0,,-99.0,-99.0,24.5909,,24.5910,,0.7688,82.5136,,8.137,,9.5422E+02,,6.5716E+00,,16.2752,16.2772,0.0682,,100.852,81.004,,,,,,,,,,,,
CalCOFI,2007SR,063,65,2007_063d,25-Jul-2020 17:19:02,25-Jul-2020 09:19:02,34.05438,-122.94184,076.7 080.0,076.7,080.0,20.000,20.145,,16.2749,,16.2710,,16.2730,33.5770,,33.5772,33.5774,,33.5790,33.5781,5.6433,,5.8790,5.8460,4.5330,,6.8804,4.7965,5.3213,245.980,256.2904,253.5020,197.584,436.0872,203.9290,228.7155,0.1131,,0.9057,0.5416,-99.0,,-99.0,-99.0,24.5914,,24.5926,,0.7680,82.5302,,8.136,,9.4928E+02,,6.1866E+00,,16.2717,16.2679,0.0716,,100.774,80.941,,,,,,,,,,,,
CalCOFI,2007SR,063,65,2007_063d,25-Jul-2020 17:19:04,25-Jul-2020 09:19:04,34.05438,-122.94184,076.7 080.0,076.7,080.0,21.000,21.152,,16.2591,,16.2569,,16.2580,33.5761,,33.5763,33.5768,,33.5784,33.5774,5.6461,,5.8819,5.8489,4.5353,,6.8859,4.8016,5.3253,246.101,256.4167,253.6272,197.683,436.3831,204.1387,228.8830,0.1005,,0.7572,0.4669,-99.0,,-99.0,-99.0,24.5943,,24.5954,,0.7675,82.5411,,8.136,,9.5462E+02,,5.8379E+00,,16.2557,16.2536,0.0749,,100.792,80.959,21,16.045,,5.868,256.17,0.441,0.157,2.62,0.061,0.29,0.40,1.72
CalCOFI,2007SR,063,65,2007_063d,25-Jul-2020 17:19:05,25-Jul-2020 09:19:05,34.05438,-122.94182,076.7 080.0,076.7,080.0,22.000,22.159,,16.2580,,16.2589,,16.2585,33.5760,,33.5762,33.5766,,33.5782,33.5772,5.6485,,5.8844,5.8514,4.5357,,6.8869,4.8025,5.3270,246.207,256.5274,253.7368,197.704,436.6424,204.1832,228.9600,0.1051,,0.8114,0.4944,0.0001,,0.0000,-99.0,24.5945,,24.5948,,0.7671,82.5493,,8.136,,9.5496E+02,,5.5078E+00,,16.2545,16.2554,0.0783,,100.834,80.971,,,,,,,,,,,,
CalCOFI,2007SR,063,65,2007_063d,25-Jul-2020 17:19:06,25-Jul-2020 09:19:06,34.05438,-122.94182,076.7 080.0,076.7,080.0,23.000,23.167,,16.2421,,16.2405,,16.2413,33.5744,,33.5746,33.5745,,33.5761,33.5754,5.6483,,5.8842,5.8512,4.5357,,6.8869,4.8025,5.3269,246.199,256.5190,253.7286,197.700,436.6228,204.1747,228.9517,0.1030,,0.7867,0.4819,0.0001,,0.0000,-99.0,24.5969,,24.5974,,0.7794,82.2968,,8.135,,9.5074E+02,,5.2235E+00,,16.2384,16.2368,0.0817,,100.798,80.939,,,,,,,,,,,,
CalCOFI,2007SR,063,65,2007_063d,25-Jul-2020 17:19:09,25-Jul-2020 09:19:09,34.05438,-122.94182,076.7 080.0,076.7,080.0,24.000,24.174,,16.2417,,16.2476,,16.2447,33.5746,,33.5748,33.5754,,33.5770,33.5759,5.6391,,5.8746,5.8416,4.5359,,6.8874,4.8029,5.3223,245.798,256.1004,253.3136,197.710,435.6420,204.1959,228.7548,0.1057,,0.8185,0.4980,0.0001,,0.0000,-99.0,24.5972,,24.5965,,0.7643,82.6070,,8.134,,9.5188E+02,,4.9392E+00,,16.2379,16.2438,0.0850,,100.633,80.955,,,,,,,,,,,,
CalCOFI,2007SR,063,65,2007_063d,25-Jul-2020 17:19:12,25-Jul-2020 09:19:12,34.05438,-122.94182,076.7 080.0,076.7,080.0,25.000,25.181,,16.1908,,16.1835,,16.1872,33.5682,,33.5684,33.5683,,33.5699,33.5692,5.6372,,5.8726,5.8396,4.5450,,6.9091,4.8231,5.3314,245.712,256.0107,253.2246,198.107,435.4317,205.0370,229.1308,0.1103,,0.8727,0.5252,0.0001,,0.0000,-99.0,24.6040,,24.6057,,0.7651,82.5892,,8.133,,9.5251E+02,,4.7206E+00,,16.1869,16.1796,0.0884,,100.495,81.014,,,,,,,,,,,,
CalCOFI,2007SR,063,65,2007_063d,25-Jul-2020 17:19:13,25-Jul-2020 09:19:13,34.05438,-122.94182,076.7 080.0,076.7,080.0,26.000,26.189,,16.1433,,16.1386,,16.1410,33.5653,,33.5655,33.5654,,33.5670,33.5663,5.6545,,5.8907,5.8576,4.5523,,6.9265,4.8392,5.3484,246.465,256.7967,254.0038,198.423,437.2734,205.7066,229.8552,0.1073,,0.8373,0.5075,0.0001,,0.0000,-99.0,24.6126,,24.6138,,0.7645,82.6026,,8.134,,9.5161E+02,,4.5036E+00,,16.1392,16.1345,0.0917,,100.708,81.071,,,,,,,,,,,,
CalCOFI,2007SR,063,65,2007_063d,25-Jul-2020 17:19:15,25-Jul-2020 09:19:15,34.05438,-122.94182,076.7 080.0,076.7,080.0,27.000,27.196,,15.9729,,15.9768,,15.9749,33.5663,,33.5665,33.5646,,33.5662,33.5664,5.7053,,5.9438,5.9106,4.5718,,6.9731,4.8824,5.3965,248.670,259.0985,256.2854,199.264,442.6665,207.4884,231.8869,0.1120,,0.8927,0.5351,0.0001,,0.0000,-99.0,24.6520,,24.6498,,0.7635,82.6238,,8.133,,9.5024E+02,,4.2683E+00,,15.9687,15.9726,0.0951,,101.275,81.159,,,,,,,,,,,,
CalCOFI,2007SR,063,65,2007_063d,25-Jul-2020 17:19:17,25-Jul-2020 09:19:17,34.05438,-122.94182,076.7 080.0,076.7,080.0,28.000,28.203,,15.6496,,15.6675,,15.6586,33.5863,,33.5865,33.5864,,33.5880,33.5873,5.7242,,5.9635,5.9303,4.6117,,7.0683,4.9707,5.4505,249.472,259.9357,257.1152,200.987,444.6281,211.1389,234.1271,0.1319,,1.1274,0.6490,0.0001,,0.0000,-99.0,24.7400,,24.7361,,0.7605,82.6852,,8.129,,9.5157E+02,,4.0590E+00,,15.6453,15.6632,0.0983,,100.979,81.382,,,,,,,,,,,,
CalCOFI,2007SR,063,65,2007_063d,25-Jul-2020 17:19:20,25-Jul-2020 09:19:20,34.05438,-122.94182,076.7 080.0,076.7,080.0,29.000,29.211,,15.3332,,15.3231,,15.3282,33.5908,,33.5910,33.5885,,33.5901,33.5906,5.7330,,5.9727,5.9395,4.6438,,7.1449,5.0418,5.4907,249.835,260.3147,257.4908,202.371,445.5159,214.0712,235.7810,0.1489,,1.3280,0.7420,0.0001,,0.0000,-99.0,24.8137,,24.8142,,0.7780,82.3249,,8.125,,9.5200E+02,,3.8368E+00,,15.3288,15.3187,0.1015,,100.505,81.393,,,,,,,,,,,,
CalCOFI,2007SR,063,65,2007_063d,25-Jul-2020 17:19:21,25-Jul-2020 09:19:21,34.05438,-122.94182,076.7 080.0,076.7,080.0,30.000,30.218,,14.9730,,14.9493,,14.9612,33.6088,,33.6090,33.6118,,33.6134,33.6112,5.7893,,6.0315,5.9981,4.6750,,7.2194,5.1109,5.5545,252.266,262.8524,260.0063,203.710,451.4618,216.9081,238.4572,0.1828,,1.7286,0.9161,0.0001,,0.0000,-99.0,24.9063,,24.9138,,0.7851,82.1790,,8.122,,9.4998E+02,,3.6443E+00,,14.9685,14.9448,0.1046,,100.779,81.345,,,,,,,,,,,,
CalCOFI,2007SR,063,65,2007_063d,25-Jul-2020 17:19:23,25-Jul-2020 09:19:23,34.05438,-122.94183,076.7 080.0,076.7,080.0,31.000,31.225,,14.9730,,14.9274,,14.9502,33.6249,,33.6251,33.6177,,33.6193,33.6222,5.6696,,5.9065,5.8734,4.6814,,7.2347,5.1250,5.4992,247.050,257.4074,254.6091,203.987,438.7042,217.4950,236.0521,0.1638,,1.5040,0.8204,0.0001,,0.0000,-99.0,24.9188,,24.9231,,0.7901,82.0773,,8.116,,9.4844E+02,,3.4446E+00,,14.9684,14.9227,0.1077,,98.705,81.424,31,14.148,33.6488,,252.47,0.818,0.555,6.62,0.135,1.14,0.69,3.64
CalCOFI,2007SR,063,65,2007_063d,25-Jul-2020 17:19:26,25-Jul-2020 09:19:26,34.05438,-122.94183,076.7 080.0,076.7,080.0,32.000,32.233,,14.9018,,14.8833,,14.8926,33.6213,,33.6215,33.6170,,33.6186,33.6201,5.5015,,5.7308,5.6982,4.6951,,7.2674,5.1554,5.4268,239.722,249.7577,247.0266,204.583,420.7810,218.7577,232.8922,0.1683,,1.5572,0.8435,0.0001,,0.0000,-99.0,24.9314,,24.9321,,0.8105,81.6604,,8.111,,9.4762E+02,,3.2587E+00,,14.8971,14.8785,0.1108,,95.641,81.590,,,,,,,,,,,,
CalCOFI,2007SR,063,65,2007_063d,25-Jul-2020 17:19:27,25-Jul-2020 09:19:27,34.05438,-122.94182,076.7 080.0,076.7,080.0,33.000,33.240,,14.5208,,14.5148,,14.5178,33.6272,,33.6274,33.6241,,33.6257,33.6266,5.5702,,5.8026,5.7698,4.7251,,7.3390,5.2218,5.4958,242.694,252.8602,250.1018,205.874,428.0501,221.4930,235.7974,0.1858,,1.7641,0.9308,0.0001,,0.0000,-99.0,25.0177,,25.0167,,0.8591,80.6760,,8.105,,9.4897E+02,,3.0857E+00,,14.5160,14.5099,0.1138,,96.102,81.511,,,,,,,,,,,,
CalCOFI,2007SR,063,65,2007_063d,25-Jul-2020 17:19:29,25-Jul-2020 09:19:29,34.05438,-122.94182,076.7 080.0,076.7,080.0,34.000,34.247,,14.2892,,14.2883,,14.2888,33.6191,,33.6193,33.6207,,33.6223,33.6208,5.6083,,5.8424,5.8095,4.7384,,7.3708,5.2512,5.5304,244.344,254.5826,251.8091,206.443,432.0857,222.6985,237.2538,0.1889,,1.8008,0.9458,0.0001,,0.0000,-99.0,25.0606,,25.0620,,0.7962,81.9524,,8.098,,9.5021E+02,,2.9221E+00,,14.2843,14.2834,0.1167,,96.305,81.367,,,,,,,,,,,,
CalCOFI,2007SR,063,65,2007_063d,25-Jul-2020 17:19:31,25-Jul-2020 09:19:31,34.05438,-122.94184,076.7 080.0,076.7,080.0,35.000,35.255,,14.2874,,14.3194,,14.3034,33.6248,,33.6250,33.6295,,33.6311,33.6281,5.5127,,5.7425,5.7099,4.7323,,7.3562,5.2377,5.4738,240.178,250.2337,247.4984,206.177,421.8963,222.1349,234.8167,0.1892,,1.8044,0.9473,0.0001,,0.0000,-99.0,25.0654,,25.0623,,0.7889,82.1004,,8.091,,9.4612E+02,,2.7759E+00,,14.2823,14.3144,0.1196,,94.663,81.317,,,,,,,,,,,,
CalCOFI,2007SR,063,65,2007_063d,25-Jul-2020 17:19:34,25-Jul-2020 09:19:34,34.05438,-122.94184,076.7 080.0,076.7,080.0,36.000,36.262,,14.1049,,14.0834,,14.0942,33.6046,,33.6048,33.6047,,33.6063,33.6056,5.4430,,5.6697,5.6372,4.7522,,7.4037,5.2818,5.4595,237.134,247.0561,244.3487,207.036,414.4511,223.9549,234.1518,0.1812,,1.7097,0.9082,-99.0,,-99.0,-99.0,25.0880,,25.0926,,0.7795,82.2927,,8.084,,9.4550E+02,,2.6108E+00,,14.0997,14.0782,0.1225,,93.110,81.257,,,,,,,,,,,,
CalCOFI,2007SR,063,65,2007_063d,25-Jul-2020 17:19:36,25-Jul-2020 09:19:36,34.05440,-122.94184,076.7 080.0,076.7,080.0,37.000,37.269,,13.8775,,13.8846,,13.8811,33.6149,,33.6151,33.6162,,33.6178,33.6165,5.4790,,5.7073,5.6748,4.7635,,7.4307,5.3068,5.4908,238.690,248.6804,245.9588,207.521,418.2569,224.9825,235.4707,0.1743,,1.6281,0.8739,-99.0,,-99.0,-99.0,25.1433,,25.1428,,0.7916,82.0471,,8.079,,9.4827E+02,,2.4874E+00,,13.8723,13.8793,0.1254,,93.301,81.130,,,,,,,,,,,,
CalCOFI,2007SR,063,65,2007_063d,25-Jul-2020 17:19:37,25-Jul-2020 09:19:37,34.05440,-122.94184,076.7 080.0,076.7,080.0,38.000,38.277,,13.7105,,13.7329,,13.7217,33.6073,,33.6075,33.6089,,33.6105,33.6090,5.3773,,5.6010,5.5688,4.7770,,7.4629,5.3367,5.4528,234.253,244.0486,241.3677,208.104,407.4046,226.2177,233.7927,0.1746,,1.6317,0.8754,-99.0,,-99.0,-99.0,25.1718,,25.1684,,0.7692,82.5059,,8.073,,9.4530E+02,,2.3662E+00,,13.7052,13.7275,0.1282,,91.256,81.105,,,,,,,,,,,,
CalCOFI,2007SR,063,65,2007_063d,25-Jul-2020 17:19:40,25-Jul-2020 09:19:40,34.05439,-122.94184,076.7 080.0,076.7,080.0,39.000,39.284,,13.5664,,13.5727,,13.5696,33.6079,,33.6081,33.6091,,33.6107,33.6094,5.1799,,5.3948,5.3631,4.7873,,7.4875,5.3595,5.3613,225.646,235.0638,232.4617,208.544,386.3531,227.1499,229.8058,0.1650,,1.5182,0.8266,-99.0,,-99.0,-99.0,25.2017,,25.2013,,0.7663,82.5649,,8.062,,9.4300E+02,,2.2427E+00,,13.5610,13.5672,0.1310,,87.645,81.014,,,,,,,,,,,,
CalCOFI,2007SR,063,65,2007_063d,25-Jul-2020 17:19:42,25-Jul-2020 09:19:42,34.05440,-122.94184,076.7 080.0,076.7,080.0,40.000,40.292,,13.2019,,13.2274,,13.2147,33.6281,,33.6283,33.6288,,33.6304,33.6294,5.2300,,5.4471,5.4153,4.8042,,7.5279,5.3969,5.4061,227.812,237.3248,234.7030,209.263,391.6508,228.6732,231.6881,0.1579,,1.4343,0.7897,-99.0,,-99.0,-99.0,25.2910,,25.2865,,0.7779,82.3313,,8.051,,9.4577E+02,,2.1391E+00,,13.1964,13.2219,0.1338,,87.847,80.737,,,,,,,,,,,,
CalCOFI,2007SR,063,65,2007_063d,25-Jul-2020 17:19:44,25-Jul-2020 09:19:44,34.05440,-122.94184,076.7 080.0,076.7,080.0,41.000,41.299,,13.0983,,13.1127,,13.1055,33.6300,,33.6302,33.6314,,33.6330,33.6316,5.2422,,5.4599,5.4280,4.8000,,7.5178,5.3876,5.4078,228.335,237.8708,235.2441,209.075,392.9300,228.2749,231.7595,0.1588,,1.4449,0.7944,-99.0,,-99.0,-99.0,25.3132,,25.3114,,0.7569,82.7607,,8.045,,9.4331E+02,,2.0474E+00,,13.0927,13.1071,0.1365,,87.865,80.478,41,12.936,33.6481,,232.89,0.839,0.466,9.25,0.167,3.68,0.90,7.76
CalCOFI,2007SR,063,65,2007_063d,25-Jul-2020 17:19:46,25-Jul-2020 09:19:46,34.05440,-122.94184,076.7 080.0,076.7,080.0,42.000,42.306,,13.0727,,13.0768,,13.0748,33.6331,,33.6333,33.6350,,33.6366,33.6350,5.1618,,5.3759,5.3442,4.7877,,7.4885,5.3604,5.3523,224.833,234.2151,231.6205,208.538,384.3646,227.1372,229.3789,0.1520,,1.3646,0.7586,4.2448E-08,,0.0000,-99.0,25.3207,,25.3214,,0.7584,82.7284,,8.041,,9.4143E+02,,1.9641E+00,,13.0670,13.0710,0.1391,,86.474,80.214,,,,,,,,,,,,
CalCOFI,2007SR,063,65,2007_063d,25-Jul-2020 17:19:48,25-Jul-2020 09:19:48,34.05440,-122.94184,076.7 080.0,076.7,080.0,43.000,43.314,,12.9816,,12.9915,,12.9866,33.6445,,33.6447,33.6446,,33.6462,33.6455,5.0734,,5.2835,5.2521,4.7781,,7.4656,5.3391,5.2956,220.978,230.1908,227.6316,208.113,374.9358,226.2367,226.9342,0.1248,,1.0436,0.6089,-99.0,,-99.0,-99.0,25.3477,,25.3457,,0.7443,83.0206,,8.034,,9.4405E+02,,1.8713E+00,,12.9758,12.9856,0.1418,,84.840,79.917,,,,,,,,,,,,
CalCOFI,2007SR,063,65,2007_063d,25-Jul-2020 17:19:50,25-Jul-2020 09:19:50,34.05440,-122.94184,076.7 080.0,076.7,080.0,44.000,44.321,,12.8661,,12.8767,,12.8714,33.6682,,33.6684,33.6688,,33.6704,33.6694,5.0267,,5.2347,5.2034,4.7744,,7.4567,5.3309,5.2672,218.936,228.0592,225.5187,207.944,369.9414,225.8787,225.6987,0.1175,,0.9576,0.5671,-99.0,,-99.0,-99.0,25.3889,,25.3872,,0.7402,83.1054,,8.027,,9.4034E+02,,1.7988E+00,,12.8601,12.8707,0.1444,,83.872,79.678,,,,,,,,,,,,
CalCOFI,2007SR,063,65,2007_063d,25-Jul-2020 17:19:52,25-Jul-2020 09:19:52,34.05440,-122.94184,076.7 080.0,076.7,080.0,45.000,45.329,,12.8200,,12.8228,,12.8214,33.6701,,33.6703,33.6723,,33.6739,33.6721,4.8657,,5.0665,5.0356,4.7669,,7.4388,5.3143,5.1750,211.918,220.7331,218.2570,207.616,352.7764,225.1837,221.7204,0.1034,,0.7914,0.4843,-99.0,,-99.0,-99.0,25.3994,,25.4006,,0.7335,83.2447,,8.020,,9.3806E+02,,1.7316E+00,,12.8139,12.8167,0.1470,,81.108,79.467,,,,,,,,,,,,
CalCOFI,2007SR,063,65,2007_063d,25-Jul-2020 17:19:54,25-Jul-2020 09:19:54,34.05440,-122.94184,076.7 080.0,076.7,080.0,46.000,46.336,,12.7206,,12.7392,,12.7299,33.6700,,33.6702,33.6727,,33.6743,33.6723,4.7249,,4.9193,4.8889,4.7644,,7.4329,5.3088,5.0989,205.782,214.3277,211.9079,207.505,337.7686,224.9486,218.4283,0.1089,,0.8562,0.5169,-99.0,,-99.0,-99.0,25.4188,,25.4173,,0.7304,83.3097,,8.013,,9.4188E+02,,1.6675E+00,,12.7144,12.7330,0.1496,,78.599,79.288,,,,,,,,,,,,
CalCOFI,2007SR,063,65,2007_063d,25-Jul-2020 17:19:56,25-Jul-2020 09:19:56,34.05440,-122.94184,076.7 080.0,076.7,080.0,47.000,47.343,,12.5178,,12.5165,,12.5172,33.6672,,33.6674,33.6657,,33.6673,33.6674,4.4006,,4.5805,4.5509,4.7798,,7.4696,5.3429,4.9469,191.652,199.5774,197.2871,208.169,303.2086,226.3554,211.8213,0.0982,,0.7301,0.4531,-99.0,,-99.0,-99.0,25.4562,,25.4553,,0.7198,83.5324,,7.996,,9.4124E+02,,1.5995E+00,,12.5115,12.5102,0.1522,,72.897,79.175,,,,,,,,,,,,
CalCOFI,2007SR,063,65,2007_063d,25-Jul-2020 17:19:59,25-Jul-2020 09:19:59,34.05440,-122.94184,076.7 080.0,076.7,080.0,48.000,48.351,,12.1038,,12.1068,,12.1053,33.6470,,33.6472,33.6471,,33.6487,33.6480,4.2400,,4.4127,4.3836,4.7841,,7.4799,5.3524,4.8680,184.646,192.2639,190.0378,208.339,286.0729,226.7156,208.3767,0.0952,,0.6948,0.4349,-99.0,,-99.0,-99.0,25.5198,,25.5194,,0.7083,83.7718,,7.975,,9.3679E+02,,1.5325E+00,,12.0976,12.1006,0.1547,,69.621,78.560,,,,,,,,,,,,
CalCOFI,2007SR,063,65,2007_063d,25-Jul-2020 17:20:00,25-Jul-2020 09:20:00,34.05440,-122.94184,076.7 080.0,076.7,080.0,49.000,49.358,,11.9355,,11.9475,,11.9415,33.6591,,33.6593,33.6609,,33.6625,33.6609,4.1563,,4.3252,4.2964,4.7743,,7.4565,5.3307,4.8136,180.992,188.4494,186.2569,207.904,277.1358,225.7939,206.0254,0.0988,,0.7372,0.4567,-99.0,,-99.0,-99.0,25.5610,,25.5602,,0.7050,83.8407,,7.961,,9.3799E+02,,1.4947E+00,,11.9293,11.9412,0.1571,,68.011,78.144,,,,,,,,,,,,